Flag for U.S.A. Weather past 2 weeks in Jacksonville, Florida, U.S.A.

Now
90 °F

Broken clouds.


Feels Like: 97 °F
Forecast: 74 / 85 °F
Wind: 3 mph from Northeast

Location: Jacksonville Naval Air Station

Current Time: Aug 31, 2015 at 4:22:45 PM

Latest Report: Aug 31, 2015 at 3:53 PM


Visibility: 10 mi

Pressure: 30.02 "Hg

Humidity: 56%

Dew point: 72 °F

Location of JacksonvilleLocation

Historic Weather in Jacksonville — Graph

°F

Jacksonville temperature yesterday

Maximum temperature yesterday: 85 °F (at 10:53 AM)
Minimum temperature yesterday: 78 °F (at 2:53 AM)
Average temperature yesterday: 81 °F

Past Weeks' High & Low Weather Summary

 TemperatureHumidityPressure
High98 °F (Aug 25, 1:53 PM)94% (Aug 23, 8:53 PM)30.12 "Hg (Aug 23, 8:53 PM)
Low76 °F (Aug 23, 8:53 PM)38% (Aug 25, 3:53 PM)29.83 "Hg (Aug 25, 5:53 PM)
Average84 °F71%29.99 "Hg
* Reported Aug 16 2:53 PM — Aug 31 2:53 PM, Jacksonville, Weather by CustomWeather, © 2015

Note: Actual official high and low records may vary slightly from our data, if they occured in-between our weather recording intervals... More about our weather records

Advertising

Jacksonville weather history for previous 24 hours

 ConditionsComfort  
Time TempWeatherWind HumidityBarometerVisibility
2:53 PM
Mon, Aug 31
88 °FBroken clouds.6 mph63%30.03 "Hg10 mi
2:00 PM88 °FBroken clouds.6 mph63%30.06 "Hg10 mi
12:53 PM85 °FPartly sunny.3 mph70%30.06 "Hg10 mi
11:53 AM83 °FBroken clouds.5 mph74%30.08 "Hg10 mi
10:53 AM82 °FOvercast.No wind77%30.07 "Hg10 mi
9:53 AM82 °FBroken clouds.6 mph79%30.05 "Hg10 mi
8:53 AM80 °FMostly cloudy.5 mph85%30.03 "Hg10 mi
7:53 AM79 °FMostly cloudy.5 mph84%30.02 "Hg10 mi
6:53 AM79 °FOvercast.6 mph84%30.01 "Hg10 mi
5:53 AM79 °FLow clouds.3 mph88%29.99 "Hg10 mi
4:53 AM79 °FPassing clouds.3 mph88%29.98 "Hg10 mi
3:53 AM80 °FPassing clouds.3 mph85%29.98 "Hg10 mi
2:53 AM80 °FPassing clouds.3 mph85%29.98 "Hg10 mi
1:53 AM81 °FPassing clouds.No wind82%29.99 "Hg10 mi
1:03 AM81 °FPassing clouds.5 mph82%30.01 "Hg10 mi
11:53 PM
Sun, Aug 30
81 °FPassing clouds.5 mph82%30.01 "Hg10 mi
10:53 PM81 °FPartly cloudy.9 mph79%30.00 "Hg10 mi
9:53 PM80 °FPartly cloudy.10 mph81%30.00 "Hg10 mi
8:53 PM80 °FPassing clouds.3 mph85%30.00 "Hg10 mi
7:53 PM81 °FLight rain. Partly sunny.3 mph82%30.01 "Hg10 mi
6:53 PM81 °FLight rain. Broken clouds.9 mph85%30.01 "Hg10 mi
6:02 PM78 °FThunderstorms. Broken clouds.8 mph84%30.02 "Hg3 mi
4:53 PM83 °FThunderstorms. Mostly cloudy.8 mph79%30.00 "Hg10 mi
Weather by CustomWeather, © 2015

See weather overviewHow to use our weather pages